Home > Weather > Mabalacat > Past weeks

Flag for Philippines Past Weather in Mabalacat, Philippines — Yesterday and Last 2 Weeks

Now
75 °F

Partly sunny.


Feels Like: 74 °F
Forecast: 77 / 90 °F
Wind: 1 mph from Southeast

Location: Clarkfield Pampanga International Airport

Current Time: Jul 24, 2016 at 7:20:55 AM

Latest Report: Jul 24, 2016 at 7:00 AM


Visibility: 5 mi

Pressure: 29.80 "Hg

Humidity: 94%

Dew Point: 73 °F

Location of MabalacatLocation

Past Weather in Mabalacat — Graph

°F

Mabalacat Temperature Yesterday

Maximum temperature yesterday: 91 °F (at 12:00 PM)
Minimum temperature yesterday: 75 °F (at 2:00 AM)
Average temperature yesterday: 81 °F

High & Low Weather Summary for the Past Weeks

 TemperatureHumidityPressure
High95 °F (Jul 17, 4:00 PM)100% (Jul 10, 5:00 AM)29.92 "Hg (Jul 10, 5:00 AM)
Low73 °F (Jul 9, 11:00 PM)44% (Jul 18, 5:00 PM)29.71 "Hg (Jul 9, 6:00 AM)
Average82 °F81%29.84 "Hg
* Reported Jul 9 6:00 AM — Jul 24 6:00 AM, Mabalacat, Weather by CustomWeather, © 2016

Note: Actual official high and low records may vary slightly from our data, if they occured in-between our weather recording intervals... More about our weather records

Advertising

Mabalacat Weather History for the Previous 24 Hours

Scroll right to see more
 ConditionsComfort  
Time TempWeatherWind HumidityBarometerVisibility
6:00 AM
Sun, Jul 24
75 °FPartly sunny.5 mph94%29.80 "Hg5 mi
5:00 AM75 °FPartly cloudy.5 mph94%29.77 "Hg4 mi
4:00 AM75 °FPartly cloudy.2 mph94%29.77 "HgN/A
3:00 AM75 °FPartly cloudy.2 mph94%29.77 "Hg5 mi
2:00 AM75 °FPartly cloudy.6 mph94%29.77 "Hg5 mi
1:00 AM77 °FPartly cloudy.2 mph89%29.86 "Hg6 mi
12:00 AM77 °FPartly cloudy.3 mph94%29.83 "Hg5 mi
11:00 PM
Sat, Jul 23
77 °FPartly cloudy.3 mph94%29.89 "Hg5 mi
10:00 PM75 °FLight rain. Mostly cloudy.5 mph94%29.89 "Hg5 mi
9:00 PM77 °FLight rain. Mostly cloudy.2 mph89%29.86 "Hg5 mi
8:00 PM75 °FSprinkles. Mostly cloudy.5 mph94%29.83 "Hg6 mi
7:00 PM75 °FThunderstorms. Mostly cloudy.6 mph94%29.80 "Hg6 mi
6:00 PM77 °FHeavy rain. More clouds than sun.6 mph89%29.80 "Hg3 mi
5:00 PM79 °FLots of rain. More clouds than sun.14 mph89%29.77 "Hg3 mi
4:00 PM91 °FThunderstorms. Partly sunny.7 mph63%29.74 "HgN/A
3:00 PM91 °FBroken clouds.6 mph67%29.74 "HgN/A
2:00 PM91 °FBroken clouds.2 mph59%29.77 "HgN/A
1:00 PM91 °FBroken clouds.2 mph63%29.80 "HgN/A
12:00 PM91 °FBroken clouds.2 mph59%29.83 "HgN/A
11:00 AM90 °FBroken clouds.2 mph71%29.83 "HgN/A
10:00 AM86 °FBroken clouds.1 mph75%29.86 "HgN/A
9:00 AM82 °FPartly sunny.3 mph84%29.86 "HgN/A
8:00 AM81 °FPartly sunny.5 mph84%29.86 "HgN/A
7:00 AM79 °FPartly sunny.1 mph89%29.83 "HgN/A
Weather by CustomWeather, © 2016

See weather overviewHow to use our weather pages